Location: Juzet
(42.9779°N, 0.7597°E)
Time: 03:02:29
(UTC+00:00)

Cosmos 1544 - Pass Details

Date: 14 July 2020
Orbit: 473 x 490 km, 82.5° (Epoch: 04 August)

Event Time Altitude Azimuth Distance (km) Brightness Sun altitude
Exits shadow 02:59:58 10° 168° (SSE) 1,611 5.4 -13.6°
Maximum altitude 03:03:21 47° 94° (E) 635 3.9 -13.2°
Drops below altitude 10° 03:06:49 10° 20° (NNE) 1,648 6.9 -12.8°
Sets 03:08:58 0° 14° (NNE) 2,532 7.9 -12.5°
